Location: Sungai Jaoh
(2.9167°N, 113.9167°E)
Time: 02:53:55
(UTC+00:00)

deb Delta - Visible Passes

Search period start: 15 June 2021 00:00
Search period end: 25 June 2021 00:00
Orbit: 1069 x 2058 km, 99.5° (Epoch: 14 June)

Date Brightness Start Highest point End Pass type
(mag) Time Alt. Az. Time Alt. Az. Time Alt. Az.
15 Jun ? 18:33:17 10° NE 18:42:09 38° ESE 18:43:09 37° ESE visible
15 Jun ? 20:28:20 10° NNW 20:37:00 40° WNW 20:40:36 32° WSW visible
16 Jun ? 18:04:58 10° ENE 18:12:24 23° ESE 18:12:30 23° ESE visible
16 Jun ? 19:57:29 10° N 20:06:58 63° WNW 20:09:56 49° SW visible
17 Jun ? 17:38:51 10° E 17:41:50 12° ESE 17:41:50 12° ESE visible
17 Jun ? 19:27:10 10° NNE 19:37:00 87° ESE 19:39:17 63° S visible
17 Jun ? 21:27:48 10° NW 21:32:10 14° WNW 21:36:44 10° WSW visible
18 Jun ? 18:57:22 10° NNE 19:07:07 58° ESE 19:08:38 55° SE visible
18 Jun ? 20:54:38 10° NNW 21:02:10 25° WNW 21:06:04 21° WSW visible
19 Jun ? 18:28:12 10° NE 18:37:18 37° ESE 18:37:58 37° ESE visible
19 Jun ? 20:23:05 10° N 20:32:08 42° WNW 20:35:25 35° WSW visible
20 Jun ? 17:59:57 10° ENE 18:07:17 23° ESE 18:07:17 23° ESE visible
20 Jun ? 19:52:17 10° N 20:02:07 65° WNW 20:04:45 53° SW visible
21 Jun ? 17:33:55 10° E 17:36:38 12° E 17:36:38 12° E visible
21 Jun ? 19:22:01 10° NNE 19:32:10 85° ESE 19:34:05 68° S visible
21 Jun ? 21:22:14 10° NW 21:27:13 15° WNW 21:31:31 12° W visible
22 Jun ? 18:52:15 10° NNE 19:02:18 57° ESE 19:03:24 56° SE visible
22 Jun ? 20:49:20 10° NNW 20:57:15 27° WNW 21:00:51 23° WSW visible
23 Jun ? 18:23:09 10° NE 18:32:28 37° ESE 18:32:44 37° ESE visible
23 Jun ? 20:17:52 10° N 20:27:15 43° WNW 20:30:11 37° WSW visible
24 Jun ? 17:54:58 10° ENE 18:02:03 23° ESE 18:02:03 23° ESE visible
24 Jun ? 19:47:07 10° N 19:57:17 67° WNW 19:59:30 57° WSW visible
